TIANLIAN 2-04

Last updated on Tue Sep 22 2026 00:03:16 GMT+0000 (Coordinated Universal Time)

1 63361U 25062A 26264.66551440 -.00000144 00000+0 00000+0 0 9993 2 63361 4.1346 273.1073 0032974 8.0466 38.9855 1.00271863 5574
UTC large
Height (km)
Speed (km/s)
/
Latitude / Longitude
Inclination (degrees)
Orbital Period (minutes)
Azimuth
Elevation
Range (km)
Doppler Factor

Next 0 passes for location: London (51.5072 / 0.1276)

No passes found over London.
TIANLIAN 2-04